User: anonymous   Login
Location: Gallinara
(44.0333°N, 8.2333°E)
Time: 22:49:44
(UTC+00:00)
Language:

CZ-2D R/B - Orbit

View from above orbital plane
View from above orbital plane
View from above satellite
View from above satellite

Ground track
Ground track

The orbit data is extracted from the following two-line orbital elements,

1 36597U 10027B   20336.91322549  .00000529  00000-0  57863-4 0  9998
2 36597  97.8922 294.5710 0062305 147.5051 213.0027 14.90759553568570
Epoch (UTC): 01 December 2020 21:55:02
Eccentricity: 0.0062305
inclination: 97.8922°
perigee height: 552 km
apogee height: 639 km
right ascension of ascending node: 294.5710°
argument of perigee: 147.5051°
revolutions per day: 14.90759553
mean anomaly at epoch: 213.0027°
orbit number at epoch: 56857

The dashed part of the orbit path shows where the satellite is in the earth's shadow,  

DLR